FJI810 NFFN-KLAX

Flight info

Callsign FJI810
Flight time N/A
Altitude 37000
Route ALPHA KABAR A579 IDEMU DCT 0500S17415W 00N170W 0500N16545W/N0484F390 1000N16015W 14N155W 20N147W 24N140W/N0476F410 28N132W 29N129W DCT FICKY GOATZ2
Aircraft A359/H-SDE2E3GHIJ3J4J5LM1ORWXY/LB1D1

Departure

Time N/A
Airport Nadi International Airport (NFFN)

Arrival

Time 2026-04-20 16:40
Airport Los Angeles International Airport (KLAX)
Time Latitude Longitude Altitude Speed Heading
2026-04-20 16:14 32.52850 -119.52357 39527 ft 517 kts 46°
2026-04-20 16:14 32.55275 -119.49241 38585 ft 510 kts 47°
2026-04-20 16:15 32.57666 -119.46164 37384 ft 505 kts 47°
2026-04-20 16:15 32.60053 -119.43093 36049 ft 505 kts 47°
2026-04-20 16:15 32.62433 -119.40028 34723 ft 505 kts 47°
2026-04-20 16:15 32.64817 -119.36956 33374 ft 504 kts 47°
2026-04-20 16:16 32.67152 -119.33944 32010 ft 502 kts 47°
2026-04-20 16:16 32.68633 -119.32033 31169 ft 501 kts 48°
2026-04-20 16:16 32.70859 -119.29157 29943 ft 499 kts 48°
2026-04-20 16:16 32.73198 -119.26134 28638 ft 493 kts 48°
2026-04-20 16:17 32.75502 -119.23154 27531 ft 484 kts 48°
2026-04-20 16:17 32.77757 -119.20233 26485 ft 475 kts 47°
2026-04-20 16:17 32.79973 -119.17363 25548 ft 466 kts 47°
2026-04-20 16:17 32.82136 -119.14557 25027 ft 457 kts 47°
2026-04-20 16:18 32.84276 -119.11780 24522 ft 454 kts 47°
2026-04-20 16:18 32.86405 -119.09014 24017 ft 450 kts 47°
2026-04-20 16:18 32.88484 -119.06312 23504 ft 447 kts 47°
2026-04-20 16:18 32.90569 -119.03600 22960 ft 442 kts 47°
2026-04-20 16:19 32.92634 -119.00913 22448 ft 437 kts 47°
2026-04-20 16:19 32.94675 -118.98256 21955 ft 432 kts 48°
2026-04-20 16:19 32.96688 -118.95632 21450 ft 427 kts 48°
2026-04-20 16:19 32.98677 -118.93036 20980 ft 422 kts 48°
2026-04-20 16:20 33.00644 -118.90469 20493 ft 418 kts 48°
2026-04-20 16:20 33.02592 -118.87924 20020 ft 413 kts 48°
2026-04-20 16:20 33.04520 -118.85404 19548 ft 409 kts 48°
2026-04-20 16:20 33.06432 -118.82903 19072 ft 406 kts 48°
2026-04-20 16:21 33.08321 -118.80431 18606 ft 402 kts 49°
2026-04-20 16:21 33.10202 -118.77966 18096 ft 399 kts 49°
2026-04-20 16:21 33.11435 -118.76350 17771 ft 396 kts 49°
2026-04-20 16:22 33.12752 -118.74624 17432 ft 392 kts 49°
2026-04-20 16:22 33.14574 -118.72232 16993 ft 387 kts 49°
2026-04-20 16:22 33.16368 -118.69878 16629 ft 381 kts 49°
2026-04-20 16:22 33.18146 -118.67542 16105 ft 379 kts 49°
2026-04-20 16:23 33.19897 -118.65203 15856 ft 376 kts 50°
2026-04-20 16:23 33.21482 -118.62970 15800 ft 377 kts 51°
2026-04-20 16:23 33.22935 -118.60905 15722 ft 376 kts 51°
2026-04-20 16:23 33.24622 -118.58513 15637 ft 376 kts 51°
2026-04-20 16:24 33.26312 -118.56128 15546 ft 375 kts 51°
2026-04-20 16:24 33.27999 -118.53749 15445 ft 375 kts 51°
2026-04-20 16:24 33.29687 -118.51370 15350 ft 374 kts 51°
2026-04-20 16:24 33.31372 -118.48997 15263 ft 374 kts 51°
2026-04-20 16:25 33.32971 -118.46550 15174 ft 372 kts 59°
2026-04-20 16:25 33.33942 -118.43766 15062 ft 365 kts 81°
2026-04-20 16:25 33.34092 -118.40768 14975 ft 360 kts 95°
2026-04-20 16:25 33.33942 -118.37783 14878 ft 359 kts 97°
2026-04-20 16:26 33.33747 -118.34809 14781 ft 358 kts 97°
2026-04-20 16:26 33.33561 -118.31842 14688 ft 356 kts 97°
2026-04-20 16:26 33.33385 -118.28888 14600 ft 356 kts 97°
2026-04-20 16:26 33.33213 -118.25934 14496 ft 355 kts 97°
2026-04-20 16:27 33.33043 -118.22980 14411 ft 355 kts 96°
2026-04-20 16:27 33.33067 -118.20036 14137 ft 354 kts 86°
2026-04-20 16:27 33.33668 -118.17190 13318 ft 364 kts 69°
2026-04-20 16:27 33.35103 -118.14668 12544 ft 372 kts 44°
2026-04-20 16:28 33.37251 -118.13062 12310 ft 360 kts 21°
2026-04-20 16:28 33.39696 -118.12449 11606 ft 361 kts
2026-04-20 16:28 33.42208 -118.12335 11053 ft 359 kts
2026-04-20 16:28 33.44694 -118.12286 10678 ft 351 kts
2026-04-20 16:29 33.47056 -118.12231 10543 ft 336 kts
2026-04-20 16:29 33.49346 -118.12166 10416 ft 321 kts
2026-04-20 16:29 33.51539 -118.12095 10220 ft 311 kts
2026-04-20 16:29 33.53699 -118.12022 9821 ft 309 kts
2026-04-20 16:30 33.55835 -118.11946 9458 ft 304 kts
2026-04-20 16:30 33.57942 -118.11869 9140 ft 302 kts
2026-04-20 16:30 33.60036 -118.11792 8819 ft 300 kts
2026-04-20 16:30 33.62090 -118.11716 8494 ft 299 kts
2026-04-20 16:31 33.64162 -118.11639 8191 ft 297 kts
2026-04-20 16:31 33.66227 -118.11561 7873 ft 295 kts
2026-04-20 16:31 33.68278 -118.11484 7558 ft 294 kts
2026-04-20 16:31 33.70311 -118.11408 7253 ft 292 kts
2026-04-20 16:32 33.72339 -118.11332 6935 ft 290 kts
2026-04-20 16:32 33.74348 -118.11256 6622 ft 288 kts
2026-04-20 16:32 33.76325 -118.11181 6313 ft 285 kts
2026-04-20 16:32 33.78265 -118.11108 6172 ft 273 kts
2026-04-20 16:33 33.80123 -118.11038 6030 ft 261 kts
2026-04-20 16:33 33.81905 -118.10971 5895 ft 250 kts
2026-04-20 16:33 33.83612 -118.10906 5739 ft 241 kts
2026-04-20 16:33 33.85272 -118.10844 5534 ft 238 kts
2026-04-20 16:34 33.86901 -118.10783 5305 ft 237 kts
2026-04-20 16:34 33.88544 -118.10722 5057 ft 235 kts
2026-04-20 16:34 33.90179 -118.10683 4857 ft 234 kts 359°
2026-04-20 16:34 33.91802 -118.10793 4605 ft 233 kts 354°
2026-04-20 16:35 33.93329 -118.11384 4480 ft 231 kts 330°
2026-04-20 16:35 33.94613 -118.12465 4355 ft 220 kts 321°
2026-04-20 16:35 33.95647 -118.13761 4191 ft 212 kts 298°
2026-04-20 16:35 33.96010 -118.15437 3963 ft 205 kts 273°
2026-04-20 16:36 33.95953 -118.17140 3716 ft 202 kts 262°
2026-04-20 16:36 33.95772 -118.18794 3433 ft 202 kts 261°
2026-04-20 16:36 33.95550 -118.20459 3171 ft 200 kts 261°
2026-04-20 16:36 33.95384 -118.22096 2935 ft 195 kts 263°
2026-04-20 16:37 33.95228 -118.23713 2655 ft 193 kts 263°
2026-04-20 16:37 33.95067 -118.25298 2417 ft 185 kts 262°
2026-04-20 16:37 33.94913 -118.26772 2238 ft 169 kts 262°
2026-04-20 16:37 33.94772 -118.28129 2086 ft 157 kts 262°
2026-04-20 16:38 33.94643 -118.29395 1818 ft 150 kts 262°
2026-04-20 16:38 33.94524 -118.30643 1492 ft 148 kts 263°
2026-04-20 16:38 33.94409 -118.31832 1261 ft 141 kts 262°
2026-04-20 16:38 33.94286 -118.32981 1016 ft 135 kts 262°
2026-04-20 16:39 33.94158 -118.34095 827 ft 135 kts 261°
2026-04-20 16:39 33.94041 -118.35221 653 ft 135 kts 263°
2026-04-20 16:39 33.93928 -118.36361 481 ft 141 kts 263°
2026-04-20 16:39 33.93804 -118.37597 275 ft 147 kts 263°
2026-04-20 16:40 33.93686 -118.38770 137 ft 134 kts 263°
2026-04-20 16:40 33.93585 -118.39740 128 ft 93 kts 263°
2026-04-20 16:40 33.93531 -118.40314 132 ft 44 kts 270°
2026-04-20 16:40 33.93585 -118.40616 129 ft 33 kts 286°
2026-04-20 16:41 33.93599 -118.40821 123 ft 0 kts 283°
2026-04-20 16:41 33.93646 -118.40897 124 ft 33 kts 327°
2026-04-20 16:41 33.93771 -118.40936 130 ft 0 kts 313°
2026-04-20 16:41 33.93778 -118.41007 130 ft 22 kts 265°
2026-04-20 16:42 33.93763 -118.41203 130 ft 24 kts 286°
2026-04-20 16:42 33.93883 -118.41266 123 ft 20 kts 353°
2026-04-20 16:42 33.94035 -118.41287 130 ft 24 kts 353°
2026-04-20 16:42 33.94199 -118.41312 128 ft 9 kts 352°
2026-04-20 16:43 33.94208 -118.41313 124 ft 3 kts 353°
2026-04-20 16:43 33.94235 -118.41302 130 ft 5 kts 44°
2026-04-20 16:43 33.94248 -118.41244 127 ft 9 kts 81°
2026-04-20 16:43 33.94255 -118.41183 124 ft 0 kts 83°
2026-04-20 16:44 33.94259 -118.41141 127 ft 9 kts 83°
2026-04-20 16:44 33.94262 -118.41113 132 ft 0 kts 82°